Weather History for Skagway, AK

Change the Weather History Date:

Saturday, April 12, 2014

  Actual Average Record
Temperature  
Mean Temperature 34 °F -  
Max Temperature 45 °F 45 °F 63 °F (2012)
Min Temperature 25 °F 30 °F 19 °F (1972)
Degree Days  
Heating Degree Days 30    
Moisture  
Dew Point 21 °F    
Average Humidity 58    
Maximum Humidity 75    
Minimum Humidity 40    
Precipitation  
Precipitation 0.00 in - - ()
Sea Level Pressure  
Sea Level Pressure 30.35 in    
Wind  
Wind Speed 4 mph (SSE)    
Max Wind Speed 20 mph    
Max Gust Speed -    
Visibility 10 miles    
Events      
Averages and records for this station are not official NWS values.
T = Trace of Precipitation, MM = Missing Value Source: NWS Daily Summary

Daily Weather History Graph

Daily Weather History Graph

Search for Another Location

Airport:

Trip Planner

Search our weather history database for the weather conditions in past years. The results will help you decide how hot, cold, wet, or windy it might be!

Date:

Astronomy

Apr. 12, 2014 Rise Set
Actual Time 5:54 AM AKDT 8:11 PM AKDT
Civil Twilight 5:09 AM AKDT 8:55 PM AKDT
Nautical Twilight 4:12 AM AKDT 9:54 PM AKDT
Astronomical Twilight 2:57 AM AKDT 11:11 PM AKDT
Moon 5:27 PM AKDT (4/12) 5:01 AM AKDT (4/12)
Length of Visible Light 15h 45m
Length of Day
14h 16m
Waxing Gibbous, 93% of the Moon is Illuminated
Apr 12
Waxing Gibbous
Apr 14
Full
Apr 21
Last Quarter
Apr 28
New
May 6
First Quarter

Hourly Weather History & Observations

Time (AKDT) Temp. Windchill Dew Point Humidity Pressure Visibility Wind Dir Wind Speed Gust Speed Precip Events Conditions
12:53 AM 28.9 °F - 19.0 °F 67% 30.37 in 10.0 mi Calm Calm - N/A   Clear
1:53 AM 28.0 °F - 18.0 °F 66% 30.37 in 10.0 mi Calm Calm - N/A   Clear
2:53 AM 27.0 °F 23.0 °F 19.0 °F 72% 30.38 in 10.0 mi NE 3.5 mph - N/A   Clear
3:53 AM 27.0 °F - 19.0 °F 72% 30.38 in 10.0 mi Calm Calm - N/A   Clear
4:53 AM 26.1 °F - 18.0 °F 71% 30.38 in 10.0 mi Calm Calm - N/A   Clear
5:53 AM 25.0 °F - 18.0 °F 75% 30.38 in 10.0 mi Calm Calm - N/A   Clear
6:53 AM 25.0 °F 19.3 °F 18.0 °F 75% 30.39 in 10.0 mi NE 4.6 mph - N/A   Clear
7:53 AM 26.1 °F 20.5 °F 18.0 °F 71% 30.38 in 10.0 mi NNE 4.6 mph - N/A   Clear
8:53 AM 30.0 °F 26.5 °F 19.0 °F 64% 30.38 in 10.0 mi NE 3.5 mph - N/A   Clear
9:53 AM 34.0 °F - 21.0 °F 59% 30.38 in 10.0 mi Calm Calm - N/A   Clear
10:53 AM 35.1 °F 28.6 °F 19.0 °F 52% 30.35 in 10.0 mi SW 8.1 mph - N/A   Clear
11:53 AM 37.9 °F 30.9 °F 21.9 °F 53% 30.37 in 10.0 mi SW 10.4 mph - N/A   Clear
12:53 PM 41.0 °F 37.1 °F 19.0 °F 41% 30.35 in 10.0 mi Variable 5.8 mph - N/A   Clear
1:53 PM 43.0 °F 35.1 °F 21.0 °F 42% 30.34 in 10.0 mi SSW 17.3 mph - N/A   Clear
2:53 PM 44.1 °F 35.9 °F 21.0 °F 40% 30.33 in 10.0 mi SSW 19.6 mph - N/A   Clear
3:53 PM 43.0 °F 35.1 °F 26.1 °F 51% 30.32 in 10.0 mi SSW 17.3 mph - N/A   Clear
4:53 PM 44.1 °F 36.8 °F 24.1 °F 45% 30.32 in 10.0 mi SSW 16.1 mph - N/A   Clear
5:53 PM 43.0 °F 36.8 °F 25.0 °F 49% 30.31 in 10.0 mi SSW 11.5 mph - N/A   Clear
6:53 PM 43.0 °F 36.8 °F 25.0 °F 49% 30.29 in 10.0 mi SSW 11.5 mph - N/A   Clear
7:53 PM 42.1 °F 37.7 °F 25.0 °F 51% 30.30 in 10.0 mi SSW 6.9 mph - N/A   Clear
8:53 PM 39.9 °F 35.8 °F 21.0 °F 47% 30.31 in 10.0 mi East 5.8 mph - N/A   Clear
9:53 PM 37.0 °F 33.3 °F 21.9 °F 54% 30.32 in 10.0 mi NE 4.6 mph - N/A   Clear
10:53 PM 35.1 °F 31.0 °F 21.9 °F 59% 30.32 in 10.0 mi NNE 4.6 mph - N/A   Clear
11:53 PM 33.1 °F 30.0 °F 21.0 °F 61% 30.33 in 10.0 mi NNE 3.5 mph - N/A   Clear